Time,TemperatureF,DewpointF,PressureIn,WindDirection,WindDirectionDegrees,WindSpeedMPH,WindSpeedGustMPH,Humidity,HourlyPrecipIn,Conditions,Clouds,dailyrainin,SoftwareType,DateUTC
2014-09-14 00:00:00,82.0,-99.9,-100.00,South,180,4.0,7.0,-999,-99.99,,,-99.99,,2014-09-14 04:00:00,
2014-09-14 00:54:00,82.0,-99.9,-100.00,South,180,4.0,7.0,-999,-99.99,,,-99.99,,2014-09-14 04:54:00,
2014-09-14 01:00:00,82.0,-99.9,-100.00,SSW,210,9.0,9.0,-999,-99.99,,,-99.99,,2014-09-14 05:00:00,
2014-09-14 01:53:00,82.0,-99.9,-100.00,SSW,210,9.0,9.0,-999,-99.99,,,-99.99,,2014-09-14 05:53:00,
2014-09-14 03:00:00,82.0,-99.9,-100.00,SW,220,9.0,11.0,-999,-99.99,,,-99.99,,2014-09-14 07:00:00,
2014-09-14 03:54:00,82.0,-99.9,-100.00,SW,220,9.0,11.0,-999,-99.99,,,-99.99,,2014-09-14 07:54:00,
2014-09-14 04:00:00,82.0,-99.9,-100.00,WSW,240,13.0,16.0,-999,-99.99,,,-99.99,,2014-09-14 08:00:00,
2014-09-14 04:52:00,82.0,-99.9,-100.00,WSW,240,13.0,16.0,-999,-99.99,,,-99.99,,2014-09-14 08:52:00,
2014-09-14 05:00:00,79.0,-99.9,-100.00,WNW,300,18.0,20.0,-999,-99.99,,,-99.99,,2014-09-14 09:00:00,
2014-09-14 05:54:00,79.0,-99.9,-100.00,WNW,300,18.0,20.0,-999,-99.99,,,-99.99,,2014-09-14 09:54:00,
2014-09-14 06:00:00,77.0,-99.9,-100.00,North,10,18.0,20.0,-999,-99.99,,,-99.99,,2014-09-14 10:00:00,
2014-09-14 06:54:00,77.0,-99.9,-100.00,North,10,18.0,20.0,-999,-99.99,,,-99.99,,2014-09-14 10:54:00,
2014-09-14 07:00:00,76.0,-99.9,-100.00,NNE,30,16.0,20.0,-999,-99.99,,,-99.99,,2014-09-14 11:00:00,
2014-09-14 07:53:00,76.0,-99.9,-100.00,NNE,30,16.0,20.0,-999,-99.99,,,-99.99,,2014-09-14 11:53:00,
2014-09-14 08:00:00,77.0,-99.9,-100.00,NNE,30,13.0,16.0,-999,-99.99,,,-99.99,,2014-09-14 12:00:00,
2014-09-14 08:52:00,77.0,-99.9,-100.00,NNE,30,13.0,16.0,-999,-99.99,,,-99.99,,2014-09-14 12:52:00,
2014-09-14 09:00:00,76.0,-99.9,-100.00,NNE,30,13.0,16.0,-999,-99.99,,,-99.99,,2014-09-14 13:00:00,
2014-09-14 09:53:00,76.0,-99.9,-100.00,NNE,30,13.0,16.0,-999,-99.99,,,-99.99,,2014-09-14 13:53:00,
2014-09-14 10:00:00,78.0,-99.9,-100.00,ENE,60,11.0,16.0,-999,-99.99,,,-99.99,,2014-09-14 14:00:00,
2014-09-14 10:53:00,78.0,-99.9,-100.00,ENE,60,11.0,16.0,-999,-99.99,,,-99.99,,2014-09-14 14:53:00,
2014-09-14 11:00:00,79.0,-99.9,-100.00,NE,50,7.0,9.0,-999,-99.99,,,-99.99,,2014-09-14 15:00:00,
2014-09-14 11:54:00,79.0,-99.9,-100.00,NE,50,7.0,9.0,-999,-99.99,,,-99.99,,2014-09-14 15:54:00,
2014-09-14 13:00:00,80.0,-99.9,-100.00,ENE,70,11.0,13.0,-999,-99.99,,,-99.99,,2014-09-14 17:00:00,
2014-09-14 13:55:00,80.0,-99.9,-100.00,ENE,70,11.0,13.0,-999,-99.99,,,-99.99,,2014-09-14 17:55:00,
2014-09-14 14:00:00,80.0,-99.9,-100.00,ENE,70,16.0,20.0,-999,-99.99,,,-99.99,,2014-09-14 18:00:00,
2014-09-14 14:53:00,80.0,-99.9,-100.00,ENE,70,16.0,20.0,-999,-99.99,,,-99.99,,2014-09-14 18:53:00,
2014-09-14 15:00:00,80.0,-99.9,-100.00,ENE,60,16.0,18.0,-999,-99.99,,,-99.99,,2014-09-14 19:00:00,
2014-09-14 15:53:00,80.0,-99.9,-100.00,ENE,60,16.0,18.0,-999,-99.99,,,-99.99,,2014-09-14 19:53:00,
2014-09-14 16:00:00,82.0,-99.9,-100.00,East,80,13.0,16.0,-999,-99.99,,,-99.99,,2014-09-14 20:00:00,
2014-09-14 16:53:00,82.0,-99.9,-100.00,East,80,13.0,16.0,-999,-99.99,,,-99.99,,2014-09-14 20:53:00,
2014-09-14 17:00:00,79.0,-99.9,-100.00,East,80,18.0,20.0,-999,-99.99,,,-99.99,,2014-09-14 21:00:00,
2014-09-14 17:54:00,79.0,-99.9,-100.00,East,80,18.0,20.0,-999,-99.99,,,-99.99,,2014-09-14 21:54:00,
2014-09-14 18:00:00,78.0,-99.9,-100.00,ENE,70,18.0,20.0,-999,-99.99,,,-99.99,,2014-09-14 22:00:00,
2014-09-14 18:53:00,78.0,-99.9,-100.00,ENE,70,18.0,20.0,-999,-99.99,,,-99.99,,2014-09-14 22:53:00,
2014-09-14 19:00:00,78.0,-99.9,-100.00,ENE,70,16.0,20.0,-999,-99.99,,,-99.99,,2014-09-14 23:00:00,
2014-09-14 19:53:00,78.0,-99.9,-100.00,ENE,70,16.0,20.0,-999,-99.99,,,-99.99,,2014-09-14 23:53:00,
2014-09-14 20:00:00,78.0,-99.9,-100.00,ENE,60,16.0,20.0,-999,-99.99,,,-99.99,,2014-09-15 00:00:00,
2014-09-14 20:52:00,78.0,-99.9,-100.00,ENE,60,16.0,20.0,-999,-99.99,,,-99.99,,2014-09-15 00:52:00,
2014-09-14 21:00:00,78.0,-99.9,-100.00,NNE,20,11.0,16.0,-999,-99.99,,,-99.99,,2014-09-15 01:00:00,
2014-09-14 21:53:00,78.0,-99.9,-100.00,NNE,20,11.0,16.0,-999,-99.99,,,-99.99,,2014-09-15 01:53:00,
2014-09-14 22:00:00,76.0,-99.9,-100.00,NE,40,16.0,18.0,-999,-99.99,,,-99.99,,2014-09-15 02:00:00,
2014-09-14 22:52:00,76.0,-99.9,-100.00,NE,40,16.0,18.0,-999,-99.99,,,-99.99,,2014-09-15 02:52:00,